FW8041 Weather Reports


time (UTC)temp
C
wind
direction
speed
KPH
gust
KPH
rain 1hr
cm
rain 24hr
cm
rain mn
cm
humidity
%
barometer
mb
20260906191554 25 225 1.6 12.9 0.00 0.00 0.00 68 1022.9
20260906190145 25 182 3.2 9.7 0.00 0.00 0.00 64 1023.0
20260906184559 26 134 1.6 8.0 0.00 0.00 0.00 64 1023.2
20260906183059 25 342 4.8 9.7 0.00 0.00 0.00 63 1023.2
20260906181554 25 136 3.2 12.9 0.00 0.00 0.00 64 1023.7
20260906180053 24 240 4.8 9.7 0.00 0.00 0.00 67 1023.6
20260906174606 24 138 4.8 11.3 0.00 0.00 0.00 67 1023.7
20260906173114 24 209 4.8 8.0 0.00 0.00 0.00 71 1023.7
20260906171558 23 226 1.6 6.4 0.00 0.00 0.00 70 1023.7
20260906170055 23 86 3.2 12.9 0.00 0.00 0.00 72 1023.8
20260906164601 23 88 3.2 9.7 0.00 0.00 0.00 72 1023.9
20260906163059 22 93 1.6 8.0 0.00 0.00 0.00 72 1023.8
20260906161554 22 338 1.6 11.3 0.00 0.00 0.00 73 1023.9
20260906160052 21 115 3.2 6.4 0.00 0.00 0.00 72 1023.8
20260906154559 21 111 1.6 4.8 0.00 0.03 0.00 74 1024.0
20260906153054 21 0 1.6 4.8 0.00 0.03 0.00 72 1024.0
20260906151559 21 205 0.0 6.4 0.00 0.03 0.00 72 1024.2
20260906150051 21 252 0.0 3.2 0.00 0.03 0.00 73 1024.3
20260906144559 21 130 0.0 3.2 0.00 0.03 0.00 72 1024.2
20260906143057 19 0 0.0 6.4 0.00 0.03 0.00 74 1024.1
20260906141552 18 0 1.6 4.8 0.00 0.03 0.00 75 1024.3
20260906140053 18 103 0.0 4.8 0.00 0.03 0.00 76 1024.5
20260906134556 18 0 0.0 3.2 0.00 0.03 0.00 79 1024.4
20260906133117 17 0 0.0 1.6 0.00 0.03 0.00 86 1024.3
20260906131600 16 103 0.0 3.2 0.00 0.03 0.00 81 1024.1
20260906130111 15 0 0.0 1.6 0.00 0.03 0.00 93 1024.0
20260906124552 14 0 0.0 1.6 0.00 0.03 0.00 95 1024.0
20260906123059 12 0 0.0 0.0 0.00 0.03 0.00 98 1024.0
20260906121555 11 0 0.0 0.0 0.00 0.03 0.00 98 1024.0
20260906120051 10 0 0.0 0.0 0.00 0.03 0.00 98 1023.9
20260906114555 9 0 0.0 0.0 0.00 0.03 0.00 99 1023.6
20260906113101 8 0 0.0 0.0 0.00 0.03 0.00 99 1023.6
20260906111556 8 0 0.0 0.0 0.00 0.03 0.00 99 1023.7
20260906110057 8 0 0.0 0.0 0.00 0.03 0.00 99 1023.5
20260906104600 8 0 0.0 0.0 0.00 0.03 0.00 99 1023.2
20260906103056 9 0 0.0 0.0 0.00 0.03 0.00 99 1023.2
20260906101558 9 0 0.0 0.0 0.00 0.03 0.00 99 1023.4
20260906100058 9 0 0.0 0.0 0.00 0.03 0.00 99 1023.4
20260906094607 9 0 0.0 0.0 0.00 0.03 0.00 99 1023.4
20260906093112 9 0 0.0 0.0 0.00 0.03 0.00 99 1023.2
20260906091600 9 0 0.0 0.0 0.00 0.03 0.00 99 1023.2
20260906090138 9 0 0.0 0.0 0.00 0.03 0.00 98 1023.2
20260906084600 9 0 0.0 0.0 0.00 0.03 0.00 98 1023.0
20260906083100 10 0 0.0 0.0 0.00 0.03 0.00 99 1023.2
20260906081602 10 0 0.0 0.0 0.00 0.03 0.00 99 1022.9
20260906080108 10 0 0.0 1.6 0.00 0.03 0.00 98 1023.1
20260906074600 10 0 0.0 0.0 0.00 0.03 0.00 98 1023.0
20260906073059 10 0 0.0 0.0 0.00 0.03 0.00 98 1023.1
20260906071555 10 0 0.0 0.0 0.00 0.03 0.00 98 1022.9
20260906070055 10 0 0.0 0.0 0.00 0.03 0.00 98 1023.0
20260906064550 10 0 0.0 0.0 0.00 0.03 0.00 98 1022.9
20260906063058 10 0 0.0 0.0 0.00 0.03 0.00 98 1022.9
20260906061603 10 0 0.0 0.0 0.00 0.03 0.00 98 1022.6
20260906060055 10 0 0.0 0.0 0.00 0.03 0.00 98 1022.6
20260906054604 10 0 0.0 0.0 0.00 0.03 0.00 97 1022.3
20260906053107 11 0 0.0 0.0 0.00 0.03 0.00 98 1022.3
20260906051554 11 0 0.0 0.0 0.00 0.03 0.00 97 1022.4
20260906050104 11 0 0.0 0.0 0.00 0.03 0.00 97 1022.3
20260906044606 11 0 0.0 0.0 0.00 0.03 0.00 97 1022.2
20260906043053 11 0 0.0 0.0 0.00 0.03 0.00 97 1022.2
20260906041604 11 0 0.0 0.0 0.00 0.03 0.00 96 1022.2
20260906040101 12 0 0.0 0.0 0.00 0.03 0.00 96 1022.2
20260906034600 12 0 0.0 0.0 0.00 0.03 0.03 96 1022.1
20260906033052 12 0 0.0 0.0 0.00 0.03 0.03 95 1022.0
20260906031600 12 0 0.0 0.0 0.00 0.03 0.03 95 1022.1
20260906030056 13 0 0.0 0.0 0.00 0.03 0.03 93 1022.2
20260906024609 13 0 0.0 0.0 0.00 0.03 0.03 92 1022.1
20260906023104 14 0 0.0 1.6 0.00 0.03 0.03 90 1021.9
20260906021557 14 103 0.0 1.6 0.00 0.03 0.03 90 1021.8
20260906020101 15 0 0.0 1.6 0.00 0.03 0.03 89 1021.7
20260906014554 15 0 0.0 1.6 0.00 0.03 0.03 88 1021.5
20260906013055 15 0 0.0 1.6 0.00 0.03 0.03 86 1021.6
20260906011602 16 0 0.0 1.6 0.00 0.03 0.03 84 1021.6
20260906010131 17 122 0.0 4.8 0.00 0.03 0.03 82 1021.5
20260906004604 17 98 3.2 6.4 0.00 0.03 0.03 81 1021.4
20260906003057 18 85 1.6 8.0 0.00 0.03 0.03 79 1021.4
20260906001605 18 103 1.6 4.8 0.00 0.03 0.03 77 1021.3
20260906000104 20 92 3.2 12.9 0.00 0.03 0.03 73 1021.2
20260905234558 20 84 4.8 16.1 0.00 0.03 0.03 71 1021.2
20260905233057 21 88 4.8 12.9 0.00 0.03 0.03 68 1021.1
20260905231553 22 102 4.8 11.3 0.00 0.03 0.03 68 1020.9
20260905230113 22 100 6.4 14.5 0.00 0.03 0.03 67 1021.0
20260905224601 23 104 6.4 16.1 0.00 0.05 0.03 66 1020.9
20260905223101 23 90 3.2 6.4 0.00 0.05 0.03 66 1020.7
20260905221556 22 84 0.0 1.6 0.00 0.05 0.03 70 1020.8
20260905220104 23 94 0.0 1.6 0.00 0.05 0.03 70 1021.0
20260905214600 25 94 0.0 3.2 0.00 0.05 0.03 61 1020.8
20260905213058 25 39 4.8 14.5 0.00 0.05 0.03 61 1021.0
20260905211555 25 87 1.6 6.4 0.00 0.05 0.03 58 1020.8
20260905210104 25 173 0.0 4.8 0.00 0.05 0.03 62 1020.7
20260905204610 23 102 3.2 6.4 0.00 0.05 0.03 66 1020.7
20260905203101 24 20 3.2 16.1 0.00 0.05 0.03 60 1020.5
20260905201603 24 209 1.6 9.7 0.00 0.05 0.03 61 1020.6
20260905200056 24 140 3.2 6.4 0.00 0.05 0.03 63 1020.8
20260905194558 24 108 4.8 11.3 0.00 0.05 0.03 63 1021.0
20260905193059 23 0 1.6 4.8 0.00 0.05 0.03 63 1021.0